This is the latest recevied weather packets stored in our database for station/object KB9HUO. If no packets are shown the sender has not sent any weather packets the latest 10 day(s).
| Time | Temp. | Humidity | Pressure | Rain* | Wind** | Luminosity | Snow |
|---|---|---|---|---|---|---|---|
| 1777691381 | 6.11° C | 85% | 1018.9 hPa | 0 mm | - | 0 W/m² | - |
| 1777691079 | 6.67° C | 84% | 1018.8 hPa | 0 mm | - | 0 W/m² | - |
| 1777690777 | 6.67° C | 83% | 1019 hPa | 0 mm | - | 0 W/m² | - |
| 1777690473 | 6.67° C | 82% | 1018.9 hPa | 0 mm | - | 0 W/m² | - |
| 1777690171 | 6.67° C | 82% | 1018.8 hPa | 0 mm | - | 0 W/m² | - |
| 1777689869 | 6.67° C | 81% | 1018.8 hPa | 0 mm | - | 0 W/m² | - |
| 1777689567 | 7.22° C | 80% | 1018.8 hPa | 0 mm | - | 0 W/m² | - |
| 1777689265 | 7.22° C | 79% | 1018.7 hPa | 0 mm | - | 0 W/m² | - |
| 1777688962 | 7.78° C | 77% | 1018.7 hPa | 0 mm | - | 0 W/m² | - |
| 1777688658 | 7.78° C | 76% | 1018.7 hPa | 0 mm | - | 0 W/m² | - |
| 1777688355 | 7.78° C | 74% | 1018.9 hPa | 0 mm | - | 0 W/m² | - |
| 1777688053 | 8.33° C | 71% | 1018.5 hPa | 0 mm | - | 0 W/m² | - |
| 1777687750 | 8.33° C | 69% | 1018.3 hPa | 0 mm | - | 0 W/m² | - |
| 1777687448 | 8.89° C | 66% | 1018.3 hPa | 0 mm | - | 0 W/m² | - |
| 1777687144 | 9.44° C | 63% | 1018.1 hPa | 0 mm | - | 0 W/m² | - |
| 1777686841 | 10° C | 63% | 1018.2 hPa | 0 mm | - | 0 W/m² | - |
| 1777686538 | 10° C | 59% | 1018.1 hPa | 0 mm | - | 0 W/m² | - |
| 1777686235 | 10° C | 58% | 1018 hPa | 0 mm | - | 0 W/m² | - |
| 1777685931 | 10° C | 58% | 1018 hPa | 0 mm | - | 0 W/m² | - |
| 1777685627 | 10° C | 58% | 1017.9 hPa | 0 mm | - | 0 W/m² | - |
| 1777685324 | 10° C | 58% | 1018 hPa | 0 mm | - | 0 W/m² | - |
| 1777685022 | 10° C | 57% | 1017.9 hPa | 0 mm | - | 0 W/m² | - |
| 1777684719 | 10.56° C | 57% | 1017.7 hPa | 0 mm | - | 0 W/m² | - |
| 1777684414 | 10.56° C | 57% | 1017.7 hPa | 0 mm | - | 0 W/m² | - |
| 1777684112 | 10.56° C | 58% | 1017.6 hPa | 0 mm | - | 0 W/m² | - |
* Rain latest hour (hover to see other rain measurements)
** Current wind speed in m/s (hover to see current wind gust speed)